WetterOnline ( https://www.wetteronline.de )

Wetter aktuell Alfeld (Leine)

Aktuelles Wetter: Alfeld (148m)

6-stündlich | Neueste Meldungen
Ortszeit Temperatur Wetter
Sa, 15.05. 2:00 7.5° C leicht bewölkt
Fr, 14.05. 20:00 14.5° C wolkenlos
Fr, 14.05. 14:00 13.4° C bewölkt
Fr, 14.05. 8:00 11.2° C leicht bewölkt
Fr, 14.05. 2:00 10.0° C wolkig
Do, 13.05. 20:00 14.7° C bedeckt
Do, 13.05. 14:00 15.7° C bedeckt
Do, 13.05. 8:00 10.7° C bedeckt
Ortszeit Temperatur Wetter
Sa, 15.05. 2:00 7.5° C leicht bewölkt
Sa, 15.05. 1:50 7.5° C leicht bewölkt
Sa, 15.05. 1:40 7.3° C wolkenlos
Sa, 15.05. 1:30 8.5° C fast wolkenlos
Sa, 15.05. 1:20 8.5° C fast wolkenlos
Sa, 15.05. 1:10 8.5° C leicht bewölkt
Sa, 15.05. 1:00 8.8° C bedeckt
Sa, 15.05. 0:30 8.7° C bewölkt
Sa, 15.05. 0:00 8.4° C wolkig
Fr, 14.05. 23:30 8.0° C fast wolkenlos
Fr, 14.05. 23:00 8.8° C fast wolkenlos
Ortszeit Relative Feuchte Sichtweite
Sa, 15.05. 2:00 100% 18 km
Fr, 14.05. 20:00 67% 55 km
Fr, 14.05. 14:00 79% 27 km
Fr, 14.05. 8:00 88% 15 km
Fr, 14.05. 2:00 90% >70 km
Do, 13.05. 20:00 65% >70 km
Do, 13.05. 14:00 62% 55 km
Do, 13.05. 8:00 95% 21 km
Ortszeit Relative Feuchte Sichtweite
Sa, 15.05. 2:00 100% 18 km
Sa, 15.05. 1:50 100% -
Sa, 15.05. 1:40 98% -
Sa, 15.05. 1:30 99% 25 km
Sa, 15.05. 1:20 99% -
Sa, 15.05. 1:10 99% -
Sa, 15.05. 1:00 97% 30 km
Sa, 15.05. 0:30 99% 18 km
Sa, 15.05. 0:00 99% 23 km
Fr, 14.05. 23:30 97% 22 km
Fr, 14.05. 23:00 95% 29 km
Ortszeit Niederschlagsmenge Niederschlagsart
Sa, 15.05. 2:00 0.0 l/m2 in 6 Std. -
Fr, 14.05. 20:00 0.1 l/m2 in 12 Std. Regen
Fr, 14.05. 14:00 0.1 l/m2 in 6 Std. Regen
Fr, 14.05. 8:00 0.0 l/m2 in 12 Std. -
Fr, 14.05. 2:00 0.0 l/m2 in 6 Std. -
Do, 13.05. 20:00 0.0 l/m2 in 12 Std. -
Do, 13.05. 14:00 0.0 l/m2 in 6 Std. -
Do, 13.05. 8:00 1 l/m2 in 12 Std. Regen
Ortszeit Niederschlagsmenge Niederschlagsart
Sa, 15.05. 2:00 0.0 l/m2 in 1 Std. -
Sa, 15.05. 1:50 keine Meldung -
Sa, 15.05. 1:40 keine Meldung -
Sa, 15.05. 1:30 0.0 l/m2 in 1 Std. -
Sa, 15.05. 1:20 keine Meldung -
Sa, 15.05. 1:10 keine Meldung -
Sa, 15.05. 1:00 0.0 l/m2 in 1 Std. -
Sa, 15.05. 0:30 0.0 l/m2 in 1 Std. -
Sa, 15.05. 0:00 0.0 l/m2 in 1 Std. -
Fr, 14.05. 23:30 0.0 l/m2 in 1 Std. -
Fr, 14.05. 23:00 0.0 l/m2 in 1 Std. -
Ortszeit Stärke Spitze Richtung
km/h Bft. km/h Grad Sektor
Sa, 15.05. 2:00 4 1 14 140° SO
Fr, 14.05. 20:00 9 2 33 320° NW
Fr, 14.05. 14:00 13 3 30 290° W
Fr, 14.05. 8:00 4 1 18 310° NW
Fr, 14.05. 2:00 0 0 18 - -
Do, 13.05. 20:00 9 2 30 320° NW
Do, 13.05. 14:00 13 3 24 310° NW
Do, 13.05. 8:00 7 2 11 330° NW
Ortszeit Stärke Spitze Richtung
km/h Bft. km/h Grad Sektor
Sa, 15.05. 2:00 4 1 7 140° SO
Sa, 15.05. 1:50 4 1 - 140° SO
Sa, 15.05. 1:40 4 1 - 150° SO
Sa, 15.05. 1:30 2 1 6 190° S
Sa, 15.05. 1:20 2 1 - 190° S
Sa, 15.05. 1:10 2 1 - 240° SW
Sa, 15.05. 1:00 7 2 14 130° SO
Sa, 15.05. 0:30 4 1 7 140° SO
Sa, 15.05. 0:00 0 0 7 - -
Fr, 14.05. 23:30 4 1 7 270° W
Fr, 14.05. 23:00 2 1 4 190° S
Ortszeit Untergrenze Bedeckung Gattung
total tief tief mittel hoch
Sa, 15.05. 2:00 2400 m 2/8 2/8 - - -
Fr, 14.05. 20:00 - 0/8 0/8 - - -
Fr, 14.05. 14:00 660 m 7/8 7/8 - - -
Fr, 14.05. 8:00 390 m 3/8 3/8 - - -
Fr, 14.05. 2:00 1500 m 7/8 5/8 - - -
Do, 13.05. 20:00 2700 m 8/8 8/8 - - -
Do, 13.05. 14:00 3000 m 8/8 8/8 - - -
Do, 13.05. 8:00 2700 m 8/8 8/8 - - -
Ortszeit Bedeckungsgrad in Achtel und Wolkenuntergrenze
Sa, 15.05. 2:00 2(2400m)
Sa, 15.05. 1:50 2(2400m)
Sa, 15.05. 1:40 keine Wolken
Sa, 15.05. 1:30 1(2100m)
Sa, 15.05. 1:20 1(2100m) 1(2400m)
Sa, 15.05. 1:10 3(2400m)
Sa, 15.05. 1:00 1(1800m) 8(2400m)
Sa, 15.05. 0:30 2(1350m) 5(1800m) 7(2700m)
Sa, 15.05. 0:00 6(3000m)
Fr, 14.05. 23:30 1(1800m)
Fr, 14.05. 23:00 1(1800m)
Ortszeit Luftdruck NN (hPa) Tendenz (hPa in 3 Std.)
Sa, 15.05. 2:00 1008 - 0,1
Fr, 14.05. 20:00 1007 - 0,1
Fr, 14.05. 14:00 1007 + 0,4
Fr, 14.05. 8:00 1006 + 0,4
Fr, 14.05. 2:00 1006 - 0,3
Do, 13.05. 20:00 1006 - 0,3
Do, 13.05. 14:00 1007 - 1,0
Do, 13.05. 8:00 1008 - 1,3
Ortszeit Luftdruck NN (hPa) Tendenz (hPa in 3 Std.)
Sa, 15.05. 2:00 1008 - 0,1
Sa, 15.05. 1:50 1008 keine Meldung
Sa, 15.05. 1:40 1008 keine Meldung
Sa, 15.05. 1:30 1008 + 0,1
Sa, 15.05. 1:20 1008 keine Meldung
Sa, 15.05. 1:10 1008 keine Meldung
Sa, 15.05. 1:00 1008 + 0,2
Sa, 15.05. 0:30 1008 + 0,6
Sa, 15.05. 0:00 1008 + 0,6
Fr, 14.05. 23:30 1008 + 0,8
Fr, 14.05. 23:00 1008 + 0,8
Ortszeit Schneehöhe (cm)
Sa, 15.05. 2:00 0
Fr, 14.05. 20:00 0
Fr, 14.05. 14:00 0
Fr, 14.05. 8:00 0
Fr, 14.05. 2:00 0
Do, 13.05. 20:00 0
Do, 13.05. 14:00 0
Do, 13.05. 8:00 0
Ortszeit Schneehöhe (cm)
Sa, 15.05. 2:00 0
Sa, 15.05. 1:50 0
Sa, 15.05. 1:40 0
Sa, 15.05. 1:30 0
Sa, 15.05. 1:20 0
Sa, 15.05. 1:10 0
Sa, 15.05. 1:00 0
Sa, 15.05. 0:30 0
Sa, 15.05. 0:00 0
Fr, 14.05. 23:30 0
Fr, 14.05. 23:00 0
Link zu dieser Seite / Seite empfehlen

Das Wetter in ...